Wind_Speed
5 6 7 7 7 9 10 7 3 3 2 3 5 6 7 6 7 9 5 5 2 6 9 11 10 12 12 10 11 10 10 9 8 8 7 7 7 7 8 8 8 8 8 13 16 13 12 13 13 13 13 14 13 12 13 13 13 13 15 18 18 18 17 16 15 14 13 12 10 10 10 9 9 8 7 6 5 5 6 6 6 5 4 4 4 4
5 7 7 7 4 4 4 2 1 2 3 5 6 6 7 7 6 6 4 3 2 5 8 9 11 13 9 8 10 10 10 10 9 9 8 8 8 7 8 9 9 8 8 12 14 13 13 13 13 12 13 15 15 14 14 14 13 14 15 14 14 14 14 15 14 13 12 11 10 10 10 10 10 9 8 7 7 6 6 6 6 5 5 5 5 5
7 8 8 6 3 3 2 2 4 5 6 6 7 6 6 7 6 5 5 3 4 5 6 8 11 9 6 6 10 10 9 9 8 9 8 8 8 7 8 9 9 9 9 10 11 14 13 12 13 13 12 15 17 15 15 14 13 14 14 12 12 13 13 14 14 13 12 11 11 11 11 11 10 9 8 8 8 7 7 7 6 5 5 4 5 5
6 6 7 7 5 4 5 4 7 6 6 8 7 7 6 7 7 4 6 5 3 4 5 5 9 6 6 6 8 7 6 6 7 8 8 8 8 7 7 8 10 11 11 10 11 13 14 13 11 10 10 13 16 15 15 15 15 16 16 14 14 14 14 15 14 13 14 14 13 13 13 11 11 11 10 10 9 8 7 6 6 5 5 4 4 5
5 3 3 7 7 8 7 6 9 7 7 9 8 8 6 7 7 3 4 4 3 4 5 6 8 6 7 9 9 6 4 5 6 8 8 8 7 6 6 7 9 10 10 11 11 12 14 13 9 8 9 13 16 17 17 17 16 17 18 18 18 17 15 16 15 14 15 16 15 15 14 13 12 12 11 10 8 7 7 6 6 6 5 5 4 4
5 6 5 8 9 10 8 7 10 9 7 8 10 12 9 6 6 2 3 4 5 6 7 8 7 6 9 10 9 7 6 7 7 8 10 9 8 8 7 8 9 9 9 10 10 11 12 14 13 12 12 15 19 18 18 18 16 16 17 19 19 17 15 16 17 16 16 17 16 16 15 13 13 12 10 9 8 7 7 7 7 7 6 5 4 4
3 5 6 7 8 10 9 8 10 10 8 6 9 13 12 8 6 5 5 6 6 3 5 6 6 5 8 9 9 9 9 9 9 9 10 9 9 8 7 8 9 9 9 9 9 10 10 13 15 14 15 18 21 18 17 16 15 15 14 16 18 17 16 17 19 19 18 17 17 16 14 13 12 12 10 10 9 8 8 8 8 8 7 6 5 5
5 6 6 7 8 9 8 7 9 11 9 3 6 9 12 10 8 8 7 7 4 2 5 7 7 4 7 8 8 9 9 10 10 10 10 10 9 9 8 8 8 9 9 8 9 9 9 12 15 16 18 21 19 15 14 13 13 13 12 13 15 17 16 17 19 19 18 17 17 15 12 11 11 12 13 11 10 10 9 9 9 8 8 7 6 6
8 10 9 10 9 7 7 5 8 13 10 2 5 4 7 8 8 8 7 6 3 2 6 9 7 6 6 7 6 8 9 10 11 10 10 10 10 9 9 8 9 9 9 8 9 9 10 11 13 15 17 18 15 13 13 11 9 8 8 9 11 11 12 16 18 19 17 16 16 14 12 12 12 13 14 13 12 11 10 9 8 8 8 8 7 7
5 5 6 10 9 5 3 1 4 13 8 3 5 4 4 5 5 6 7 6 4 6 8 8 6 6 5 7 6 7 8 8 9 9 8 9 9 9 8 8 9 9 8 9 8 9 11 12 13 13 13 14 13 12 10 10 10 8 7 7 6 5 5 7 11 13 16 16 15 13 12 13 13 14 14 13 12 11 10 9 9 8 8 8 8 8
3 1 2 7 6 1 3 3 0 7 4 1 6 7 6 6 5 5 6 4 5 8 7 6 4 5 5 8 7 5 3 3 6 7 6 6 7 8 7 7 8 8 8 8 8 9 11 12 13 12 13 14 11 8 13 16 14 11 11 11 10 6 5 5 4 4 9 15 14 12 13 13 14 14 14 14 13 11 10 10 9 8 8 8 8 8
7 5 3 5 4 2 2 3 2 3 3 4 8 8 7 6 5 5 5 5 7 7 5 5 4 7 6 5 7 6 5 4 3 4 4 3 4 4 5 6 7 8 8 9 9 10 11 12 13 13 13 10 8 16 22 18 12 11 11 11 13 13 12 11 10 6 5 10 12 11 13 13 13 14 13 14 13 12 11 10 10 9 9 9 9 8
8 9 8 6 5 6 7 4 4 5 5 7 8 7 7 6 6 7 6 7 8 4 4 3 3 7 5 4 7 7 6 4 3 2 1 0 0 1 3 5 6 7 8 9 9 9 11 10 11 13 12 8 18 24 22 12 8 10 10 6 5 9 12 16 18 11 7 7 11 11 12 12 12 12 12 13 13 12 12 11 11 10 10 10 9 8
7 9 11 8 6 8 10 6 6 7 7 9 9 8 7 6 6 7 7 7 7 3 4 2 2 7 6 4 7 7 6 4 4 3 2 2 1 0 2 4 6 6 7 8 8 9 10 9 9 9 4 13 23 25 18 11 9 10 9 8 7 7 12 17 19 15 12 12 12 11 11 11 12 11 11 12 12 12 12 11 11 11 10 10 9 9
9 8 10 11 6 9 13 10 6 7 9 10 8 7 7 6 5 6 6 7 8 4 5 4 3 6 7 3 5 6 5 4 5 4 3 2 2 2 2 4 5 6 6 6 7 7 8 8 9 8 14 22 25 22 20 19 15 10 8 9 10 9 12 16 18 19 18 17 14 12 10 10 10 11 10 11 12 12 12 12 12 11 11 11 10 9
9 6 7 6 2 7 12 10 7 8 9 8 6 7 6 5 5 3 1 1 3 4 5 5 3 2 2 3 4 4 5 6 6 6 6 5 5 5 4 5 5 6 6 6 6 6 7 8 8 12 19 23 23 19 21 25 21 16 14 13 14 14 18 19 18 19 18 16 15 13 10 10 10 10 10 10 12 13 13 14 13 12 12 12 12 11
8 4 7 7 3 6 6 5 6 7 5 6 7 7 2 2 4 3 2 2 1 6 4 5 5 3 3 4 5 4 4 7 6 7 8 7 8 7 6 6 5 6 7 6 7 7 8 10 11 15 19 20 20 15 18 26 24 17 16 17 19 20 21 19 16 16 14 13 14 13 11 10 10 11 11 12 12 13 13 14 13 13 14 14 14 12
6 5 7 7 7 5 1 4 6 4 4 4 7 7 3 1 3 4 4 3 4 8 4 5 8 7 6 5 5 4 4 7 6 7 8 8 8 8 7 7 6 7 7 7 9 9 11 13 13 16 17 14 15 11 15 23 23 18 19 22 24 23 20 17 15 14 13 12 12 12 11 11 11 11 12 13 14 13 12 13 13 13 13 15 16 14
6 6 5 5 4 6 5 6 6 4 4 4 2 5 5 4 6 6 5 5 6 8 5 6 8 8 7 5 5 5 4 6 6 7 9 9 9 8 8 8 8 9 8 7 9 8 9 12 11 12 14 11 9 7 11 16 18 16 19 19 18 15 12 12 11 11 12 11 10 11 12 12 12 12 13 14 15 13 11 12 15 13 11 13 16 15
4 6 3 4 3 4 6 7 8 8 6 2 2 5 5 4 4 5 5 5 6 7 6 6 7 7 4 2 5 6 4 5 6 7 8 9 9 8 7 8 9 9 8 7 8 7 9 11 7 7 12 12 9 7 5 12 13 13 13 10 10 8 4 4 5 6 8 8 8 10 10 10 11 12 13 14 14 13 10 11 14 12 10 11 13 14
3 5 4 4 5 5 6 6 6 6 7 7 7 8 6 4 3 4 5 5 6 6 6 6 7 4 2 4 5 6 6 6 7 7 7 8 8 8 8 8 8 9 8 7 8 8 9 10 7 7 12 14 12 7 4 9 10 7 6 4 5 5 1 2 3 4 5 5 6 8 8 10 11 11 12 14 14 12 11 11 11 10 9 9 11 13
3 4 6 4 5 6 3 3 3 4 3 5 7 9 9 7 6 6 7 6 6 7 5 6 7 2 4 3 3 5 4 5 8 8 7 8 8 8 8 8 8 8 7 8 9 9 9 10 9 9 12 14 12 11 9 8 7 2 2 3 3 4 3 1 0 2 3 4 5 7 8 8 9 10 11 13 14 13 12 11 11 10 9 9 10 12
0 2 6 6 5 3 5 6 3 4 4 3 5 6 8 8 9 9 8 6 6 6 4 6 6 1 4 3 3 3 3 4 7 8 8 8 7 7 8 8 9 8 8 8 9 9 10 13 13 12 12 13 12 11 11 8 6 4 3 3 2 2 4 4 3 2 2 3 4 5 7 7 8 9 10 12 13 13 13 13 12 11 10 9 10 11
1 2 5 7 5 2 4 3 2 1 2 5 4 3 4 6 6 6 5 3 5 6 5 7 6 3 4 4 3 4 5 6 7 8 8 7 7 7 9 9 9 9 9 9 9 9 10 12 14 14 13 12 12 11 11 9 8 7 6 5 5 5 5 5 4 3 2 3 3 4 6 7 8 9 10 11 13 13 13 13 13 12 11 10 9 10
1 1 4 7 7 6 6 6 5 4 4 5 3 1 2 3 3 2 2 3 6 8 9 8 5 3 4 4 5 6 8 9 9 8 8 7 8 8 9 9 9 9 9 10 10 10 10 11 11 13 13 12 11 10 9 8 7 7 7 6 5 5 5 5 4 4 4 4 5 6 7 8 9 10 10 10 11 13 13 12 12 13 12 11 10 11
2 2 4 5 7 7 7 5 3 4 4 2 2 2 0 2 3 4 5 7 7 7 9 9 3 5 5 6 8 8 9 10 9 9 8 8 9 9 8 8 8 9 10 10 10 11 11 11 12 12 13 12 11 9 8 7 6 5 6 5 5 5 6 5 5 5 5 5 6 7 7 8 9 10 10 9 10 12 13 12 12 13 12 12 12 12
3 2 4 4 2 1 2 4 3 1 3 4 4 3 2 0 2 4 7 8 6 6 8 6 6 10 7 8 9 8 8 9 8 9 9 9 10 9 8 9 9 9 9 10 10 11 11 12 13 14 13 11 11 10 8 7 6 5 5 5 5 5 5 5 4 5 5 6 7 8 9 10 10 11 11 10 9 10 12 12 13 13 13 13 14 14
3 1 1 4 6 5 6 8 6 3 4 5 5 5 4 2 1 3 4 4 6 6 7 5 12 13 8 8 9 8 8 7 7 8 9 10 10 9 9 10 10 10 10 11 11 12 13 13 13 14 14 12 12 11 10 9 8 8 7 6 6 6 6 5 4 5 5 6 7 8 9 9 9 10 10 11 11 11 11 12 13 14 14 14 15 15
5 5 4 4 6 6 7 8 8 7 7 8 8 9 9 7 5 4 4 7 7 3 2 7 13 12 9 8 8 7 7 7 8 8 9 10 11 11 11 11 11 11 11 13 12 13 13 12 12 14 15 14 13 13 12 11 10 10 9 8 8 7 7 6 5 5 5 5 4 5 5 6 6 7 8 9 11 11 12 13 14 14 14 14 14 13
3 6 9 10 9 7 6 7 8 8 7 7 9 9 9 10 10 9 8 8 8 7 7 10 15 13 8 7 8 7 6 7 8 8 9 11 11 11 11 12 12 12 12 13 13 13 13 13 14 15 15 15 15 14 13 12 10 10 10 9 9 8 7 7 6 5 5 5 5 4 4 4 4 5 6 7 8 9 10 11 12 12 13 13 12 12
1 4 10 9 7 6 4 5 6 6 5 5 5 6 6 7 8 8 7 7 6 8 9 11 13 10 6 7 8 8 8 9 9 10 10 10 10 11 11 12 13 13 13 13 13 13 13 13 14 16 16 15 15 14 13 12 12 11 10 9 8 8 7 6 6 6 5 5 5 4 3 3 3 3 4 5 6 7 8 9 10 10 11 11 11 11
2 4 7 7 6 6 4 3 3 4 5 5 6 4 5 5 5 6 5 5 4 4 8 8 7 7 6 8 9 9 10 11 11 11 11 10 10 11 12 12 12 13 13 13 13 13 13 13 14 15 15 15 15 14 13 12 12 12 12 10 9 8 7 6 6 5 5 4 4 3 3 2 2 2 3 4 5 6 7 7 8 8 8 9 10 10
5 6 6 7 7 5 6 5 3 2 2 5 5 1 5 4 5 6 5 5 5 3 1 3 6 7 8 9 10 11 11 11 11 10 10 11 11 12 12 11 11 12 13 13 13 13 13 13 14 14 14 14 14 14 13 13 13 12 11 10 9 9 8 8 7 6 5 4 4 3 2 2 1 1 1 3 4 5 5 6 6 6 6 7 8 8
5 6 6 6 6 5 7 8 5 4 6 3 0 1 2 3 6 6 5 5 5 4 3 6 9 9 9 9 11 12 12 12 11 11 11 11 10 9 10 11 11 12 13 13 13 13 13 14 14 14 14 14 14 13 13 12 11 10 10 9 9 8 7 7 7 6 6 5 4 4 3 2 2 1 0 1 3 5 6 6 6 6 7 8 9 9
6 5 3 2 4 3 7 8 6 7 5 2 2 3 2 4 10 12 10 7 6 6 8 11 11 10 9 10 11 13 13 13 13 12 12 12 11 10 10 10 10 11 12 12 12 12 14 14 14 14 14 14 13 13 13 13 11 9 9 8 8 7 7 6 6 6 5 4 4 4 3 3 2 1 0 1 2 4 5 6 6 7 8 9 10 9
7 6 2 0 2 2 6 7 5 2 2 4 4 5 5 7 10 11 9 7 6 6 9 10 11 11 11 11 11 12 14 13 12 11 11 11 10 10 8 7 7 8 10 11 12 13 15 15 14 14 13 13 13 13 13 13 12 10 9 8 7 7 6 6 6 6 5 4 3 3 3 2 2 1 0 1 2 4 5 5 6 7 8 8 8 8
4 6 5 4 3 3 6 7 3 3 3 4 5 4 3 3 3 2 4 6 5 4 8 11 12 12 12 11 11 11 12 11 9 8 9 9 8 8 8 7 7 8 8 9 11 13 14 15 15 15 13 13 14 14 14 13 12 10 9 9 8 7 6 6 6 7 6 5 4 4 4 3 3 3 3 3 4 5 5 6 7 7 8 9 9 9
1 2 4 5 4 3 6 5 4 4 4 4 6 4 2 3 3 3 2 6 4 3 7 11 12 12 11 11 11 9 7 6 6 6 7 8 8 8 9 10 10 10 10 10 11 11 12 13 13 13 13 13 14 15 14 14 13 11 10 10 9 8 7 7 7 8 7 6 6 5 5 4 4 5 5 6 7 6 6 6 7 8 9 10 10 11
2 2 1 3 3 4 6 7 6 4 1 4 5 4 3 1 2 3 2 5 5 4 5 8 10 10 9 8 8 5 4 4 5 6 5 7 8 8 8 9 10 11 11 12 12 12 11 11 11 11 12 13 14 15 15 14 13 12 11 11 11 10 8 8 9 9 8 8 8 7 6 6 6 6 6 6 7 7 6 6 7 9 10 10 10 11
2 1 2 3 2 2 5 6 3 1 3 3 2 2 3 2 2 4 5 5 8 6 5 7 8 7 5 5 4 1 2 1 5 6 5 6 7 8 9 9 9 10 11 12 13 12 12 11 12 12 13 13 13 13 13 13 12 11 10 10 10 9 8 8 9 9 9 9 8 8 7 6 6 7 7 7 6 6 6 6 7 9 11 10 10 11
3 1 3 6 5 3 4 5 2 2 3 2 2 3 3 1 3 4 3 5 10 9 7 7 7 6 5 3 2 3 5 6 7 7 6 6 6 7 8 8 8 9 9 10 10 10 10 10 10 11 11 11 12 12 12 12 11 11 10 10 10 9 9 9 9 9 10 10 10 10 9 8 7 8 8 9 8 8 7 8 8 9 11 11 11 12
2 1 2 4 4 3 4 5 3 2 3 3 2 2 1 2 2 2 3 7 10 9 8 8 8 8 7 7 7 7 7 7 7 6 6 6 6 6 7 8 8 8 8 8 8 9 10 9 9 9 10 10 11 11 11 11 11 11 11 10 11 11 10 10 10 11 11 11 11 11 11 10 9 9 9 9 9 9 10 10 11 11 12 12 12 12
3 2 2 1 1 2 4 5 4 1 3 3 2 1 0 1 2 5 7 8 9 9 9 8 8 7 7 7 8 7 7 7 6 6 6 6 6 7 7 8 8 8 9 9 9 9 10 10 9 9 10 10 10 9 9 10 11 11 11 11 12 12 11 11 12 12 12 13 13 13 13 12 11 10 10 10 10 11 12 12 13 13 14 14 13 13
4 4 1 2 2 3 4 3 0 1 3 3 3 3 5 5 5 7 7 8 8 7 6 7 7 7 7 6 6 6 6 5 5 5 5 5 6 7 8 8 8 9 9 9 9 9 9 9 9 9 9 9 9 9 9 9 10 11 12 13 13 13 13 13 13 13 13 13 14 14 14 14 13 12 11 11 10 11 12 13 15 16 17 16 17 16
5 4 2 3 4 3 2 4 4 3 4 5 5 7 9 9 8 7 7 7 6 5 5 6 6 7 7 6 4 4 5 4 5 5 5 5 5 6 7 8 8 8 8 8 8 8 9 9 8 9 9 9 9 9 9 9 10 11 12 13 13 13 14 15 15 15 15 15 15 15 15 15 15 14 14 13 13 12 13 13 16 18 19 19 19 19
5 3 2 2 6 6 6 6 6 6 7 8 8 8 9 9 8 7 8 7 6 6 6 6 6 6 6 5 4 4 4 4 4 4 4 4 4 5 6 6 7 7 8 8 8 9 9 9 8 9 10 10 10 10 9 9 10 11 12 13 13 13 14 15 15 16 17 17 17 17 17 18 18 17 16 15 15 15 15 15 16 18 20 20 21 22
3 1 1 4 5 3 4 6 7 8 8 8 8 8 9 9 8 7 7 7 6 6 6 6 5 5 4 4 4 3 3 4 3 3 4 4 4 5 6 7 8 8 9 10 10 11 11 11 10 11 12 13 13 12 11 11 11 12 12 13 13 14 14 14 15 16 17 18 18 19 19 19 19 19 18 17 16 17 17 17 17 18 20 21 22 22
2 0 2 4 3 2 5 8 8 7 7 6 5 6 6 7 8 7 7 7 6 6 6 5 4 4 3 4 4 3 3 4 4 5 4 4 4 5 6 8 9 10 10 11 11 12 12 12 12 13 13 13 13 12 11 11 11 12 13 13 13 14 15 15 15 16 17 18 18 19 20 20 20 20 20 19 19 19 19 19 19 19 20 22 22 22
0 1 1 3 4 5 7 8 8 7 7 6 5 6 6 6 7 7 7 6 6 5 5 5 4 4 4 4 4 4 4 4 5 6 5 4 5 6 7 8 9 10 10 11 11 11 11 10 11 11 11 11 11 11 12 12 13 13 14 14 14 15 16 17 17 18 19 18 18 19 19 20 21 21 21 20 21 20 21 20 19 17 17 18 19 19
2 2 2 3 4 3 5 8 8 4 4 6 6 6 6 5 5 5 4 4 4 3 3 3 4 4 4 4 4 4 4 4 6 6 6 5 6 7 7 8 8 9 9 9 9 8 8 8 9 10 11 12 12 13 14 15 15 16 16 16 17 17 18 19 19 20 20 19 19 19 19 19 20 21 20 21 21 20 20 21 20 20 19 17 17 18
2 2 1 1 0 3 6 8 5 1 2 7 8 6 6 4 3 3 3 2 3 3 2 2 2 3 4 4 4 4 4 5 6 7 7 7 7 7 6 6 7 8 8 8 8 8 9 10 11 11 12 13 13 14 16 17 18 18 18 18 18 18 19 19 20 20 20 20 20 20 20 20 21 20 20 21 22 21 20 19 18 20 21 21 19 20
Wind_Direction
210 203 200 211 203 195 198 216 274 351 313 245 209 218 224 211 203 201 157 109 213 233 220 220 220 228 225 194 177 176 176 190 191 182 186 181 182 194 197 197 180 175 176 150 147 166 180 176 165 159 168 181 188 186 185 183 176 170 173 177 176 172 166 157 152 153 152 148 149 148 145 142 139 138 134 129 125 113 105 102 101 101 101 102 101 103
216 219 209 205 193 173 186 216 306 289 254 236 224 217 213 219 204 164 139 122 177 239 228 214 224 227 214 180 170 174 180 191 195 190 192 188 185 193 194 191 180 171 162 146 148 167 179 176 168 163 169 180 188 188 187 188 177 173 183 184 171 166 163 156 152 153 153 151 152 149 145 142 137 136 136 131 126 118 111 106 105 106 105 104 103 100
209 225 215 184 111 96 139 183 216 230 236 228 224 223 213 211 199 131 126 156 172 233 230 202 220 215 171 174 177 177 190 192 193 197 196 193 192 191 189 185 179 170 160 155 159 168 175 179 174 170 174 185 190 190 189 188 177 174 188 187 168 169 168 159 156 156 155 151 148 144 141 140 133 129 127 125 126 123 117 113 110 107 105 105 104 101
204 219 207 168 132 176 186 188 212 224 228 227 219 222 213 189 204 182 148 157 167 241 260 214 213 190 144 175 176 174 193 186 193 205 201 199 199 194 186 182 182 175 166 167 169 169 175 182 179 165 172 195 194 191 194 189 181 181 186 184 174 175 174 163 160 158 156 155 150 142 137 132 129 128 127 127 127 125 121 119 116 109 103 98 97 101
210 105 145 175 179 208 208 193 212 223 216 217 220 230 222 184 213 232 126 143 168 203 239 222 208 187 169 181 174 162 174 188 199 206 206 205 200 193 185 181 186 183 175 175 175 177 179 171 168 165 181 208 201 190 196 192 186 185 183 185 181 178 175 166 163 161 156 154 149 142 137 132 131 135 138 136 134 133 128 121 119 115 107 98 93 93
220 103 134 191 193 210 218 205 211 221 217 206 212 231 243 216 215 233 138 184 212 192 192 213 215 184 172 183 179 162 174 196 198 202 208 207 201 198 190 182 187 188 184 185 180 188 185 159 161 178 184 210 210 194 194 192 188 189 184 185 182 176 173 167 165 164 157 152 149 147 147 146 146 146 145 143 140 137 129 122 120 116 109 100 92 87
212 133 173 198 196 209 222 221 205 210 227 205 190 211 229 233 227 233 216 214 232 188 156 214 237 182 168 182 178 169 184 196 196 206 209 205 204 203 195 182 184 186 187 195 186 188 191 162 163 180 185 207 212 195 190 190 188 190 185 184 182 176 174 169 167 166 160 155 155 156 154 154 153 146 140 139 136 132 127 124 122 118 111 103 98 93
194 178 195 206 212 216 220 220 192 201 230 190 141 195 216 221 222 224 224 224 236 109 143 215 248 215 176 169 164 170 187 194 197 207 207 205 203 199 197 185 181 185 183 193 190 184 195 179 173 182 189 203 207 190 184 185 184 186 181 180 182 180 177 171 168 169 164 159 159 159 154 151 148 140 137 137 133 131 130 129 124 120 115 106 101 98
183 198 199 204 216 218 211 203 177 198 223 104 98 197 213 212 218 215 222 229 225 206 196 201 226 231 177 141 146 174 190 197 196 200 201 201 198 195 197 187 180 184 180 187 192 186 190 189 187 191 195 201 199 183 177 168 157 160 167 175 179 183 182 174 170 170 165 160 160 158 150 146 141 137 138 136 133 133 133 131 124 118 114 109 105 99
154 208 218 212 215 210 184 83 180 204 215 83 119 179 178 189 210 214 226 227 200 226 220 183 201 239 183 146 162 184 193 193 186 190 193 192 196 193 191 189 183 178 177 182 187 185 183 185 194 196 198 202 193 179 162 136 126 131 134 133 123 80 75 140 165 171 166 159 158 156 150 145 140 138 138 135 135 137 135 132 124 119 117 114 110 99
133 128 267 230 235 301 82 63 227 215 215 132 178 184 174 183 195 211 229 228 212 224 210 169 198 249 204 166 168 164 150 140 151 166 171 180 196 195 187 188 185 179 177 175 175 177 173 177 189 195 202 203 190 147 113 108 116 118 117 131 147 136 100 118 157 203 177 157 155 158 150 145 142 141 140 138 139 140 137 133 127 123 120 116 113 105
206 200 213 216 224 264 185 148 131 193 204 209 206 196 188 189 192 206 208 210 228 225 173 147 199 238 225 174 145 115 79 65 92 136 140 162 189 192 193 191 185 182 175 169 173 170 166 175 184 195 204 191 119 91 96 109 124 122 134 170 187 183 176 173 177 226 235 159 153 159 151 147 146 144 142 141 142 142 138 136 131 128 127 122 117 109
216 218 214 195 187 214 225 193 150 174 199 212 212 204 202 198 197 209 206 208 227 214 129 137 209 227 221 122 111 104 86 62 42 50 49 18 159 160 203 198 183 178 171 167 169 164 167 178 182 194 204 148 103 99 105 126 147 127 134 160 160 159 168 172 171 189 232 183 161 161 154 150 148 144 143 142 141 142 139 137 137 134 133 130 123 114
201 212 214 207 189 204 226 221 174 178 192 204 207 205 213 210 202 211 210 213 219 173 114 132 219 223 205 112 88 85 73 64 62 54 15 351 351 31 201 195 177 173 171 164 160 160 168 176 178 183 151 102 107 110 115 133 133 109 102 105 116 155 176 175 171 180 204 196 174 167 159 151 148 143 142 143 141 142 140 139 140 137 135 134 127 119
209 206 202 206 189 183 210 232 223 193 192 206 214 214 226 230 221 225 226 227 225 186 137 150 208 225 205 126 70 74 80 83 88 93 92 85 99 130 159 165 163 160 153 145 144 152 158 163 165 133 96 102 117 126 137 145 146 145 148 151 158 185 200 191 182 185 197 195 180 172 162 150 147 142 140 142 142 144 144 142 141 137 136 136 131 124
229 224 170 170 138 177 204 225 232 220 200 198 223 224 230 245 235 231 291 308 261 220 172 175 209 242 181 114 91 94 96 94 95 104 109 109 114 120 124 127 137 135 130 136 139 141 141 139 131 111 108 120 130 140 152 155 159 173 183 178 172 189 205 201 192 189 193 192 184 177 167 151 144 141 140 144 147 151 151 146 142 140 139 137 134 131
230 226 138 143 175 194 219 220 210 236 216 174 213 220 205 297 259 234 170 98 285 245 198 180 210 196 161 153 125 123 108 96 95 101 105 106 112 117 115 119 129 128 129 142 136 121 115 108 98 106 120 131 132 148 170 162 161 173 180 181 182 192 203 197 193 193 188 187 187 184 177 163 154 150 149 150 154 158 158 150 145 145 144 140 137 138
236 226 150 175 198 164 200 231 196 239 255 201 211 199 129 50 248 244 236 192 214 236 202 180 214 206 191 183 140 147 126 97 93 97 104 109 108 103 102 111 120 122 128 134 121 105 97 90 85 108 133 142 133 162 192 162 154 173 184 189 193 195 201 196 190 192 190 188 187 185 185 178 170 165 160 160 161 164 165 158 152 152 152 145 140 142
233 235 161 172 198 140 155 212 195 194 243 270 238 178 173 222 215 209 230 223 214 229 216 190 209 214 207 189 158 172 138 95 100 105 108 106 99 95 96 103 108 113 124 125 113 99 91 84 77 110 140 151 145 207 215 146 143 187 196 196 197 189 192 199 192 191 193 191 187 189 192 187 178 171 167 168 167 168 173 168 159 157 159 150 142 143
216 242 191 148 160 154 174 207 211 191 187 231 247 197 205 245 235 210 217 230 230 232 223 202 207 214 208 124 125 151 130 111 120 114 108 97 88 88 93 102 109 114 120 118 112 108 103 96 94 129 142 146 161 223 225 124 140 207 218 209 207 189 159 171 180 181 184 184 188 194 192 186 180 175 172 172 171 172 173 170 164 162 164 156 148 148
195 235 228 151 145 189 200 207 230 219 189 199 213 208 206 213 235 242 226 229 248 243 226 221 222 203 101 55 83 113 116 132 138 123 112 100 90 84 89 106 114 114 112 104 102 105 102 103 115 145 142 145 161 177 146 135 160 217 257 258 241 245 253 85 108 131 150 168 180 184 186 184 180 178 176 174 173 173 171 170 170 171 171 163 156 156
193 222 229 196 188 212 195 81 357 318 278 226 220 216 216 211 213 229 224 213 234 251 246 239 235 160 78 38 65 93 110 140 143 137 121 107 98 88 91 108 112 105 101 97 101 107 106 110 123 140 142 146 159 158 147 158 166 176 279 292 303 290 283 304 24 124 143 163 171 177 184 184 182 183 180 176 175 174 172 173 174 178 180 173 167 164
320 235 230 226 225 192 101 76 39 347 327 275 255 240 230 224 220 230 234 209 208 232 249 250 244 139 75 44 59 90 130 140 143 147 134 115 103 93 94 102 102 99 99 100 104 105 106 116 127 133 135 140 149 149 145 153 159 156 196 216 215 234 227 228 241 231 162 164 177 187 190 189 190 190 184 182 181 178 175 177 179 180 182 180 174 169
342 257 238 227 223 143 115 126 131 51 261 237 232 244 250 242 234 246 257 218 207 216 220 236 232 153 86 56 62 100 132 142 148 150 143 125 107 106 108 107 106 107 106 102 99 98 101 111 122 125 121 123 129 133 136 145 156 162 170 186 195 198 202 212 221 218 198 188 193 199 201 203 201 196 192 189 188 185 180 181 185 185 184 185 181 176
142 316 277 226 213 203 193 194 183 181 215 225 205 174 288 270 233 234 249 233 234 225 220 236 231 121 89 74 81 100 122 136 142 142 149 141 121 119 119 114 114 113 107 100 91 85 83 84 97 110 108 105 107 109 116 125 136 149 157 169 181 181 181 186 188 185 185 190 192 195 201 206 207 204 199 196 195 193 187 184 188 190 191 191 189 184
99 10 319 248 226 223 217 213 211 199 185 163 125 117 52 250 217 220 224 229 233 210 212 241 231 114 102 94 92 97 112 123 128 128 136 132 118 117 118 115 117 115 109 103 89 77 73 69 75 91 96 94 92 90 95 106 117 132 142 154 169 167 161 163 167 164 166 173 180 187 193 198 205 204 198 198 201 199 196 196 197 197 197 197 198 196
87 42 5 348 342 324 347 11 358 292 166 138 124 110 76 263 247 254 235 233 238 207 210 225 151 132 122 102 98 99 107 115 118 120 121 118 113 116 122 122 118 114 110 103 90 80 78 74 75 84 89 89 89 87 88 94 103 115 124 135 142 136 131 136 150 154 157 165 174 183 191 196 202 203 201 203 206 206 208 210 211 209 205 202 203 203
113 107 15 36 55 49 35 34 30 47 97 92 93 85 63 67 212 247 256 295 300 245 219 154 130 131 117 103 106 104 107 108 106 110 117 120 121 123 126 123 117 109 100 94 88 83 81 78 79 83 86 89 93 95 94 92 93 98 103 104 100 99 106 116 130 139 144 160 174 182 189 193 199 204 207 210 213 217 223 227 228 223 215 209 207 208
144 154 171 137 104 80 54 43 41 59 77 74 72 70 62 63 76 80 45 9 350 296 195 124 120 113 99 107 111 101 103 108 106 112 118 120 123 126 126 123 117 107 95 88 84 82 82 81 79 78 77 80 84 88 91 92 91 92 92 90 88 89 96 103 112 122 128 137 145 154 165 169 178 195 206 211 216 219 224 230 230 226 220 214 210 211
161 158 163 155 138 119 84 60 48 48 61 70 66 60 58 63 68 72 67 49 50 63 79 103 104 91 86 104 101 91 95 102 107 115 118 117 118 120 118 114 109 101 95 91 87 85 84 81 79 77 74 73 72 73 76 77 80 85 84 83 85 87 89 93 97 103 110 113 108 110 129 143 156 183 199 209 217 219 221 222 221 220 221 219 216 217
297 170 166 160 151 148 119 81 63 42 35 36 27 26 38 53 60 61 54 43 57 81 93 101 94 84 87 99 96 98 99 99 103 105 107 111 113 112 108 105 104 100 96 94 90 88 87 83 81 80 77 74 71 70 70 71 73 75 73 72 76 79 81 83 88 94 96 95 97 103 118 134 153 179 195 205 214 220 224 222 216 218 222 222 223 224
185 166 172 186 198 191 171 130 91 54 20 330 307 347 29 36 52 56 41 13 18 88 121 123 102 97 114 110 101 98 92 87 85 85 86 86 85 89 91 91 96 97 95 93 89 86 83 79 77 76 76 77 75 73 72 74 74 71 67 65 65 67 71 73 77 85 88 90 97 104 113 131 163 193 207 212 216 219 223 223 219 220 222 226 231 232
174 161 171 204 218 194 165 151 117 72 313 280 267 35 54 75 104 86 53 29 13 6 135 122 100 112 128 124 109 97 86 76 69 68 71 69 62 62 65 68 74 79 79 78 77 76 73 70 68 67 69 70 69 68 67 68 69 66 63 64 63 65 67 68 68 69 71 78 85 89 94 106 128 177 215 222 222 221 220 222 222 221 221 228 231 230
184 185 184 204 218 186 146 135 138 205 228 246 191 118 57 101 125 109 71 46 29 19 66 92 105 118 124 119 108 97 87 79 73 68 66 68 68 61 57 55 55 62 66 64 62 62 60 60 59 58 60 62 61 61 59 57 58 60 61 62 63 62 62 64 66 64 61 62 66 69 71 74 84 93 143 206 219 222 222 223 218 210 214 226 232 231
179 195 201 227 231 173 134 142 178 212 222 20 57 148 144 117 115 105 88 65 61 89 106 107 113 115 108 105 103 98 93 85 76 67 59 59 66 65 60 49 38 41 49 52 52 51 50 51 50 47 48 51 52 53 50 46 43 47 52 53 54 53 51 53 58 59 56 55 55 53 46 44 50 56 88 206 218 223 226 223 213 208 216 227 230 226
174 173 150 228 234 157 161 185 202 189 105 68 86 127 133 135 132 115 93 70 68 103 120 115 113 114 111 111 109 108 106 96 81 71 63 59 60 62 63 59 47 40 36 33 35 37 35 36 38 38 39 42 43 42 40 35 30 33 39 40 40 41 39 39 43 43 39 31 27 19 2 354 4 16 183 205 219 224 225 219 209 206 208 209 206 197
181 176 175 188 199 211 211 205 168 118 147 134 121 122 115 126 144 119 95 88 68 93 125 123 121 121 121 122 122 124 124 113 93 78 74 72 74 76 73 69 69 71 59 41 35 35 30 26 26 26 27 31 34 31 28 24 19 20 26 28 25 23 26 30 31 29 23 13 3 351 333 316 298 274 256 250 247 240 234 224 213 203 193 188 186 180
52 170 190 201 203 226 231 214 183 195 201 141 124 118 56 21 328 317 105 114 97 102 128 131 130 129 130 134 135 143 155 137 104 84 73 69 68 72 72 64 58 60 60 50 40 38 34 27 23 21 20 22 24 22 17 12 10 9 10 13 11 8 12 20 19 16 11 3 352 338 325 316 304 290 280 269 260 257 248 226 208 193 182 177 173 169
52 50 157 209 193 204 229 228 217 219 196 98 117 113 66 9 282 276 201 146 137 133 134 136 136 135 136 141 145 170 216 183 120 92 69 62 59 53 52 53 47 43 44 40 32 26 24 20 17 17 17 17 17 14 8 5 4 1 358 360 358 354 359 7 4 359 356 350 341 328 317 309 304 300 292 278 268 266 253 221 193 181 177 177 174 168
120 140 207 225 201 191 231 238 227 136 73 82 87 52 26 358 253 234 219 167 144 143 137 133 135 131 129 150 164 172 339 84 107 91 67 64 65 54 43 40 34 28 27 26 20 12 7 7 7 7 8 9 6 2 359 358 356 351 348 346 342 340 344 348 346 340 336 330 324 318 313 308 304 302 298 289 282 273 252 224 201 188 185 190 190 180
113 128 217 229 219 199 216 231 229 80 85 84 40 14 358 303 218 224 209 129 131 136 125 113 112 104 97 109 119 80 60 64 82 86 71 57 54 47 40 33 26 22 20 17 12 5 357 356 357 357 356 355 352 348 347 347 343 337 334 329 324 323 325 327 326 322 319 316 311 308 309 310 309 308 302 294 287 276 258 240 228 212 203 205 202 190
71 71 211 221 227 215 209 219 218 106 72 45 39 52 321 251 201 150 101 115 124 123 113 102 92 83 78 71 71 83 85 76 72 68 54 44 35 26 20 17 13 11 10 6 3 1 354 346 345 348 347 345 342 339 336 331 325 320 316 312 310 310 312 313 313 311 309 307 305 304 305 305 305 306 302 295 288 278 265 251 241 230 221 218 211 199
11 303 214 156 3 249 204 210 227 160 70 13 344 143 130 306 125 114 112 119 113 104 102 96 80 72 74 76 76 78 78 71 60 47 37 30 20 8 6 6 2 359 357 353 353 356 351 341 338 341 339 336 334 332 327 319 311 306 301 299 300 303 304 304 304 302 300 298 298 297 295 294 294 294 291 288 286 279 268 257 245 234 226 222 217 207
13 329 245 94 17 282 219 198 286 83 81 27 2 90 85 77 106 120 116 114 110 105 100 89 76 66 62 70 76 72 64 56 41 29 19 10 6 2 360 0 357 355 351 347 348 351 345 335 332 332 329 329 330 326 319 312 305 299 295 294 295 295 295 294 295 292 290 288 288 286 285 284 282 280 277 277 276 273 266 257 247 238 230 225 220 213
35 19 14 58 51 26 39 76 78 91 95 72 68 89 92 92 104 112 110 110 106 93 84 85 84 71 54 54 64 61 53 42 30 20 6 360 3 2 356 355 352 348 345 341 341 344 338 330 327 326 325 327 328 324 318 314 307 301 298 298 298 296 292 289 288 284 282 281 280 278 278 277 275 272 270 268 265 262 260 255 247 240 233 227 221 217
58 30 352 74 107 92 71 83 100 106 103 96 89 89 86 85 86 87 91 95 84 69 69 74 76 67 53 45 49 53 51 39 28 23 10 1 2 0 352 347 345 344 342 340 341 342 336 330 327 328 329 330 330 326 321 316 309 304 303 304 304 300 296 293 289 282 278 275 273 272 272 271 270 268 265 261 257 255 254 252 248 243 237 231 227 224
77 15 71 114 138 135 102 108 112 107 106 103 95 85 77 74 75 75 79 84 80 75 77 79 82 83 71 56 51 58 68 55 33 22 16 5 360 357 350 347 348 347 346 345 345 343 338 333 333 333 330 329 328 326 322 319 315 311 310 309 307 303 300 297 293 287 282 277 273 270 266 263 263 262 260 258 255 252 249 247 246 245 241 235 230 227
84 185 128 118 125 109 113 124 124 114 113 115 107 99 92 88 89 90 95 102 104 100 97 97 95 87 74 65 58 52 60 56 34 17 12 5 360 356 350 350 350 347 345 344 342 339 337 334 333 332 330 328 329 327 325 322 319 316 315 312 310 307 302 298 295 291 288 284 280 275 269 264 262 260 258 257 254 251 249 244 240 241 242 239 235 232
124 208 135 117 121 112 120 139 144 134 133 141 130 114 110 108 106 106 108 110 109 102 97 91 77 64 61 62 52 38 40 45 32 16 4 360 360 355 352 351 347 344 343 342 340 340 339 336 335 334 332 330 329 326 323 319 316 315 314 311 309 307 301 296 294 292 289 286 282 278 274 270 265 261 258 258 256 253 250 245 240 238 240 242 245 245
239 170 129 168 176 150 138 151 158 152 144 151 144 124 113 111 112 112 108 99 90 86 79 75 78 81 79 69 50 33 28 30 22 9 357 355 356 352 348 346 343 343 346 346 344 346 345 340 336 332 328 327 326 322 319 317 314 312 310 307 304 301 297 293 290 288 287 285 281 279 277 274 269 264 260 257 255 253 251 247 244 245 246 243 244 245
330 43 46 253 155 81 116 139 144 27 90 133 140 135 125 121 121 113 98 78 76 72 56 59 87 97 92 82 62 35 17 7 3 357 351 347 346 342 339 339 340 341 343 344 343 343 340 336 332 328 326 325 324 321 319 316 312 309 306 303 299 296 294 292 288 284 283 282 281 281 280 276 273 270 266 259 254 251 250 246 242 243 246 246 244 242
Height
758 763 764 761 756 754 753 751 750 751 751 750 750 752 750 749 749 742 743 747 745 751 751 746 749 748 743 744 748 752 754 757 758 758 760 760 763 764 765 768 770 774 775 776 781 784 784 785 787 788 789 790 791 792 793 794 798 802 805 807 808 809 809 809 811 813 815 817 819 820 822 824 826 827 828 829 830 831 831 832 832 832 832 832 832 832
760 764 759 752 750 750 752 754 755 757 757 755 754 753 751 750 747 741 746 749 748 754 749 744 748 746 742 744 747 751 755 758 757 758 760 759 761 763 764 767 770 772 773 776 780 782 783 784 786 788 789 791 791 792 793 794 798 800 801 803 804 805 806 807 810 812 814 816 818 819 821 823 825 826 828 829 830 831 831 832 832 832 833 833 833 833
766 763 753 748 751 754 757 757 759 760 760 758 754 753 753 748 744 745 749 749 750 754 748 745 748 746 746 747 748 750 753 755 754 755 758 758 760 761 763 765 768 771 774 776 779 781 782 782 784 786 787 791 791 791 793 793 796 799 799 801 802 803 805 807 809 811 813 815 817 819 821 823 824 826 827 829 830 831 831 832 832 833 833 833 833 834
765 756 746 747 753 758 761 761 761 761 760 758 754 754 752 744 745 751 752 750 750 751 749 747 747 748 753 753 750 752 752 752 754 754 755 756 758 760 761 763 765 770 774 776 778 779 780 781 783 786 789 792 792 792 792 793 795 797 798 800 802 803 805 806 808 810 812 814 816 818 820 822 824 826 827 829 830 831 831 832 832 833 833 833 834 834
754 748 744 749 754 756 760 762 762 762 759 755 753 752 747 742 744 747 749 751 750 752 751 748 751 752 753 755 754 755 756 756 755 756 756 756 756 758 760 761 763 766 770 773 776 777 778 782 786 789 792 795 793 791 791 791 792 795 797 800 802 802 804 806 807 810 812 814 816 818 821 823 824 826 827 829 830 831 832 832 832 833 833 834 834 834
748 747 748 752 754 754 758 760 759 758 755 753 753 749 744 742 744 745 748 751 753 755 749 747 759 758 749 750 753 755 759 759 757 757 758 757 756 757 759 761 762 764 766 769 772 774 776 783 790 790 792 797 794 789 789 789 791 793 796 799 801 801 803 805 807 809 811 813 816 818 820 821 823 825 827 828 829 831 831 832 833 833 834 834 834 835
746 748 749 752 755 755 757 756 752 753 753 752 747 742 742 743 745 748 748 750 753 752 745 745 757 759 751 748 749 753 759 758 757 757 756 755 755 755 757 759 761 763 765 767 769 771 773 781 788 789 792 796 792 787 787 788 790 793 795 798 800 801 803 805 807 809 811 813 815 817 818 820 822 823 826 828 829 830 831 832 833 833 834 834 835 835
744 750 752 752 755 755 756 753 747 749 752 748 740 738 742 742 746 748 747 747 744 744 748 745 745 754 755 750 746 750 756 756 756 757 755 752 753 754 755 757 759 761 764 766 768 771 772 776 782 786 789 791 787 785 786 787 790 793 795 798 800 802 804 806 808 809 811 813 814 816 818 820 822 823 826 828 829 831 832 832 833 833 834 834 835 835
742 749 752 751 754 753 747 743 741 745 747 743 739 739 739 740 743 743 743 744 739 747 757 746 740 753 755 750 749 752 755 757 755 753 752 750 750 751 753 755 758 760 762 765 767 769 771 773 776 780 782 782 782 783 785 787 790 794 797 799 801 804 806 808 810 812 812 813 815 816 818 819 821 823 825 827 829 831 832 833 833 833 834 834 835 835
743 745 744 745 748 745 739 739 739 742 744 740 740 740 739 740 742 742 743 741 744 758 761 747 744 755 756 750 751 755 756 756 753 749 748 747 748 749 752 754 756 758 761 763 764 766 769 772 774 776 777 778 780 783 785 788 792 796 798 800 803 806 809 812 815 816 815 815 816 817 818 820 821 823 825 827 829 830 832 833 833 833 834 834 835 836
742 742 742 742 741 738 738 743 743 741 742 741 740 740 742 742 741 743 741 741 755 766 757 747 746 755 761 751 745 752 752 747 748 748 747 747 748 749 751 753 755 757 759 762 763 764 768 772 774 775 775 777 781 784 787 790 793 796 798 799 802 804 808 813 819 821 819 817 817 818 818 820 821 823 824 826 828 830 831 832 833 833 834 835 835 836
741 744 743 738 738 738 740 744 745 743 743 743 740 739 747 749 747 751 749 752 768 769 753 746 746 753 763 753 741 747 749 746 748 749 749 751 750 750 750 751 753 755 757 760 762 763 767 771 773 774 775 778 784 788 791 794 795 796 799 800 801 802 804 811 818 823 823 820 819 819 819 820 821 822 824 825 827 829 830 832 833 833 834 835 836 837
743 741 737 736 737 738 740 742 746 747 744 744 740 741 753 761 763 767 765 764 767 763 753 748 750 756 757 748 743 747 751 752 752 751 752 753 752 752 752 751 752 753 756 759 761 763 766 770 772 773 775 780 787 793 796 798 797 798 801 804 807 808 808 811 814 819 823 822 820 820 820 820 821 822 824 825 827 828 830 831 832 833 834 835 836 837
749 740 733 738 739 735 737 740 746 748 745 744 740 743 754 761 774 780 771 765 764 760 754 749 755 759 752 746 746 749 753 754 753 754 754 754 755 756 753 752 752 754 756 758 760 763 766 769 771 774 778 784 791 794 796 798 800 801 803 806 810 814 814 814 813 815 820 821 820 820 820 820 821 823 824 825 827 828 829 831 832 833 834 836 837 838
752 749 737 736 736 732 734 733 733 736 739 738 730 733 745 749 762 773 765 761 761 758 757 758 762 759 752 753 750 748 753 753 753 755 755 755 756 755 754 753 754 756 757 759 762 765 767 769 772 776 782 788 791 793 792 793 797 800 802 804 806 812 817 816 814 814 818 819 819 819 820 820 821 823 824 826 827 828 829 830 832 833 834 836 837 838
748 745 728 729 732 728 731 728 723 729 737 736 727 733 744 738 741 759 765 763 761 761 761 762 759 748 745 750 748 748 752 751 753 754 754 756 756 755 757 756 757 759 761 763 766 768 770 771 775 779 784 788 789 791 791 788 790 795 799 801 804 811 815 814 813 815 817 817 818 818 819 820 821 822 824 826 827 828 829 830 831 833 834 835 837 838
749 743 726 730 735 728 730 728 724 732 737 738 738 740 739 728 732 755 769 768 768 769 762 758 757 749 747 750 746 748 752 751 753 753 753 756 756 756 759 759 761 762 764 766 768 771 773 775 779 783 787 788 788 791 792 787 787 792 798 801 805 809 811 812 813 814 815 816 816 817 818 819 820 822 824 826 827 829 830 830 831 833 834 834 836 838
743 742 729 729 735 731 731 730 728 729 730 736 742 736 731 734 737 747 762 768 771 772 763 758 761 756 757 759 750 748 753 754 754 753 754 756 756 758 760 760 762 763 765 767 769 774 777 779 782 784 788 789 788 791 792 787 787 793 797 799 802 806 808 810 811 812 813 814 815 816 817 818 820 822 824 825 827 829 831 831 831 833 834 834 835 837
737 744 736 727 732 733 729 732 735 732 728 732 733 725 731 750 752 749 761 769 771 773 767 761 760 754 753 755 751 751 754 755 755 754 755 756 757 760 761 762 763 765 768 769 773 778 780 783 786 785 787 789 789 793 793 786 787 793 795 795 798 802 805 807 808 810 811 813 814 815 816 818 820 822 824 825 827 829 831 832 831 832 834 834 834 836
735 747 744 731 730 733 730 733 738 735 732 732 730 726 730 743 747 746 751 755 761 768 767 767 765 755 748 748 750 753 754 755 757 757 757 759 761 763 764 765 766 768 770 772 775 779 781 784 788 786 787 788 790 795 794 787 788 794 795 794 795 799 803 806 807 808 810 812 813 815 816 818 820 822 824 825 827 829 831 832 832 833 834 834 835 836
737 747 748 737 732 735 734 732 731 730 732 734 737 737 737 738 741 744 744 743 750 759 763 770 768 756 755 758 756 756 757 756 758 760 761 762 765 767 768 769 769 771 773 774 776 779 782 785 787 787 788 789 792 795 796 793 793 794 794 793 794 797 801 805 807 809 810 812 813 815 817 818 820 822 823 825 827 828 830 832 833 834 834 834 835 836
739 745 746 741 738 737 734 730 729 729 728 730 732 732 733 737 742 752 755 746 744 750 753 761 763 759 765 767 761 760 761 758 758 762 764 765 767 771 773 773 774 775 776 777 777 779 782 786 788 789 789 791 793 793 794 797 797 796 796 795 796 797 800 804 808 809 811 812 813 815 817 818 819 821 823 824 826 828 830 832 833 833 834 834 835 836
740 742 744 743 736 733 734 734 733 733 729 729 730 726 726 729 735 749 756 748 746 750 748 750 758 764 770 768 764 765 764 760 760 763 766 768 770 773 775 775 776 777 778 779 779 780 783 787 789 790 789 791 793 793 795 798 799 799 799 799 800 801 803 806 808 809 810 811 813 814 816 818 819 820 822 823 825 827 829 831 832 833 834 834 835 835
744 745 747 744 736 732 735 734 733 734 733 732 731 730 731 731 731 738 741 740 747 751 751 755 760 765 771 768 765 765 763 763 763 764 767 771 772 774 775 777 778 779 779 779 780 781 784 787 789 789 790 791 793 794 796 798 799 800 801 802 803 804 806 807 809 810 811 812 813 815 816 817 818 820 822 823 825 826 828 830 831 832 833 834 834 835
750 754 752 749 748 746 744 741 740 738 735 735 736 739 741 737 736 739 737 738 747 747 748 754 759 766 772 769 765 763 762 764 765 766 770 772 774 776 777 779 781 780 781 781 783 784 785 786 786 787 789 791 793 795 797 798 800 800 802 804 804 806 807 808 809 810 811 812 813 815 816 817 818 820 821 823 824 826 827 829 830 831 831 832 833 834
759 767 761 755 756 757 755 751 748 742 736 739 744 746 747 743 742 743 741 744 750 747 744 748 757 772 776 770 768 767 764 767 768 769 772 773 776 779 780 782 782 781 783 784 785 787 787 788 787 787 789 792 794 797 798 800 801 802 804 805 806 806 807 808 810 810 812 813 814 815 816 817 818 820 821 822 824 825 826 827 828 829 830 831 832 833
765 773 769 764 760 758 758 755 749 743 740 744 747 747 748 749 748 745 741 744 746 744 746 745 751 771 779 773 774 774 771 774 774 775 778 779 781 783 784 784 784 784 786 786 788 789 790 792 792 792 794 795 797 799 801 802 803 804 805 805 806 807 807 809 810 810 812 813 814 815 816 817 818 819 820 822 823 824 825 826 827 827 828 829 830 831
767 776 774 771 766 761 759 755 749 746 746 749 750 750 750 749 749 750 751 751 746 745 751 748 749 768 779 777 780 783 782 783 782 782 784 785 786 787 786 786 787 788 788 789 791 792 792 795 796 796 798 798 799 801 802 803 804 805 806 806 807 808 808 810 810 811 812 813 814 815 815 816 817 818 820 821 822 823 824 825 825 826 827 828 829 830
759 772 773 771 769 766 762 758 754 751 752 754 754 755 754 751 751 757 762 760 754 752 755 754 757 772 781 782 787 791 792 791 789 788 787 787 788 788 788 789 789 790 791 792 794 794 795 797 797 799 800 800 801 802 803 804 805 806 807 807 808 809 809 810 811 811 812 813 814 814 815 816 817 817 819 819 820 821 822 823 824 824 825 826 827 828
750 763 766 764 766 768 767 766 764 760 759 759 759 759 758 756 758 761 763 762 761 761 762 763 771 783 787 788 792 795 795 793 792 790 788 789 791 791 792 792 793 793 794 795 797 797 798 799 799 801 802 802 803 804 804 806 806 807 808 808 809 810 810 811 812 812 813 813 814 815 815 816 816 817 818 818 819 820 821 822 822 823 824 825 826 827
751 762 762 759 763 769 769 770 770 767 765 765 765 764 762 762 764 765 768 769 765 767 771 773 781 791 792 790 793 795 795 795 794 793 792 793 794 795 796 795 796 797 797 798 799 800 800 801 802 803 804 805 806 806 807 807 808 808 809 809 810 811 811 812 812 813 813 813 814 815 815 816 816 817 817 818 818 819 819 820 821 822 823 824 825 826
753 763 764 761 764 767 769 772 770 767 769 769 768 770 770 771 774 776 780 782 776 772 773 773 780 791 793 792 795 797 798 799 800 799 799 799 799 799 800 800 800 799 799 800 801 801 803 804 805 806 806 807 808 808 809 809 809 810 810 811 812 812 812 813 813 813 814 814 814 815 815 816 816 816 817 817 817 818 818 819 820 821 822 823 824 825
749 760 765 762 762 764 767 770 769 770 775 774 772 777 780 779 783 787 790 792 789 783 776 774 782 791 791 791 797 801 804 806 807 807 807 808 808 808 809 810 809 806 804 804 804 804 806 807 808 809 809 809 810 810 811 811 811 811 812 812 813 813 813 813 814 814 814 814 815 815 815 816 816 816 816 817 817 818 818 819 819 820 821 822 822 824
747 753 755 755 759 765 768 770 774 778 778 777 780 787 786 780 783 790 794 795 794 790 785 785 791 794 792 793 798 803 807 811 813 813 812 813 815 817 818 818 816 813 810 809 809 809 810 811 812 812 811 811 812 812 812 812 812 813 813 813 814 814 814 814 814 815 815 815 815 815 815 815 815 816 816 816 817 817 817 818 819 819 820 821 821 822
750 750 752 754 756 763 769 774 779 779 777 780 785 786 783 780 781 789 796 797 794 793 793 793 796 799 799 801 803 805 810 814 816 818 818 817 818 820 823 824 822 819 816 815 814 814 814 814 815 815 814 814 813 813 814 814 814 814 814 814 814 814 815 815 815 815 816 816 816 816 816 816 815 816 815 816 816 816 817 817 818 818 819 819 820 820
749 751 758 763 761 765 770 770 773 781 786 789 789 782 780 781 780 783 792 797 795 793 794 796 800 803 806 808 808 809 812 816 818 821 823 822 822 823 826 827 827 825 823 821 820 819 818 817 817 817 817 816 816 816 816 816 816 815 815 815 815 815 815 815 815 816 816 816 816 816 816 816 816 816 816 816 816 816 816 817 817 817 817 817 818 818
747 750 756 762 765 766 762 760 769 782 786 789 790 788 786 786 783 780 787 798 800 794 793 798 801 804 806 808 809 808 808 810 815 820 822 823 824 824 825 826 825 825 825 825 824 822 821 821 820 819 819 818 818 818 818 818 818 817 816 816 816 815 815 815 816 817 817 817 817 817 817 817 816 816 816 816 816 816 816 816 816 816 816 816 816 817
750 750 751 757 765 764 757 759 769 773 774 781 789 792 792 793 792 786 786 797 803 797 794 798 800 802 805 806 806 808 805 804 810 818 821 821 822 822 823 824 824 824 824 825 824 824 823 823 823 822 822 821 820 820 819 819 819 818 818 818 817 817 816 816 817 817 817 817 817 817 818 817 817 816 816 815 815 815 815 815 815 816 816 816 816 816
757 755 753 756 763 764 760 760 761 765 776 787 790 792 792 793 794 790 784 792 804 803 798 799 801 802 804 804 805 806 802 798 806 818 822 822 823 823 823 824 824 824 824 825 825 825 824 824 824 824 823 822 821 821 820 820 820 820 819 819 818 818 817 818 819 818 818 818 818 818 818 817 817 817 816 815 815 815 815 815 815 815 816 816 816 817
762 761 760 761 765 767 766 762 762 774 792 797 794 794 793 793 795 790 780 787 802 806 801 802 803 804 805 805 804 806 804 801 809 821 824 823 825 826 825 826 826 825 825 825 825 826 825 825 825 824 824 823 823 822 822 821 821 821 820 820 820 819 819 819 819 819 819 819 818 818 818 817 817 816 816 815 815 814 815 815 814 815 815 815 816 816
765 766 764 764 766 771 772 769 770 784 800 801 798 798 796 794 793 785 781 790 803 805 803 804 806 806 807 806 805 809 815 815 817 823 825 825 826 827 827 828 828 827 827 827 828 828 827 826 826 825 825 825 824 824 823 822 822 822 821 821 820 819 819 819 819 819 819 819 818 818 817 817 816 816 815 815 815 814 814 814 814 814 814 815 815 815
769 770 765 763 766 769 772 772 772 784 800 803 798 798 797 793 789 789 794 801 803 803 805 807 808 809 810 811 811 814 819 821 822 824 825 826 827 828 828 829 829 829 829 829 829 829 828 828 827 826 826 826 825 825 824 823 823 822 821 821 820 819 819 819 819 818 818 817 817 817 816 816 815 815 814 814 814 814 813 813 813 813 814 814 814 814
777 773 765 769 776 772 769 772 775 786 801 804 799 797 797 795 795 799 804 804 803 806 809 810 812 813 813 815 817 819 821 823 824 826 827 828 829 829 829 830 830 830 830 829 829 829 828 828 827 826 826 826 825 825 825 824 823 822 821 820 819 819 818 818 817 817 817 816 816 815 815 814 814 814 813 813 812 812 812 812 812 812 812 813 813 814
784 779 769 777 788 779 770 779 790 797 802 802 799 799 800 800 801 803 804 805 808 810 810 813 817 818 817 818 820 822 824 825 827 828 828 829 829 830 830 830 830 831 831 830 830 830 829 828 827 827 826 826 825 825 824 824 823 822 821 820 819 818 817 817 816 816 815 815 814 813 813 812 812 812 811 811 811 810 810 810 810 810 810 810 811 811
790 790 783 787 797 794 789 797 806 806 804 802 802 803 805 805 804 804 805 808 811 812 813 817 820 822 822 823 823 824 827 828 829 830 831 830 831 831 831 831 832 832 832 831 830 830 830 829 828 827 826 825 825 824 824 823 822 821 820 819 818 817 816 815 815 814 813 813 812 812 811 810 810 809 809 809 808 808 807 807 807 807 807 807 807 808
794 795 791 792 799 803 804 807 809 807 807 807 808 808 809 810 810 811 812 814 816 818 819 821 823 826 827 826 826 828 830 831 832 832 832 832 832 832 833 833 832 832 832 831 830 830 829 828 827 826 825 825 824 823 823 822 821 820 819 818 817 816 815 814 813 812 811 810 810 809 809 808 807 807 806 806 805 805 804 804 804 803 803 803 803 803
795 794 792 794 797 800 805 810 810 810 811 812 812 814 816 816 817 818 819 821 823 824 825 826 828 829 829 829 830 831 832 833 834 833 833 833 833 833 833 832 832 831 830 830 829 828 828 826 825 824 824 823 823 822 821 821 819 819 818 817 816 815 813 812 811 810 809 808 807 806 805 805 804 803 803 802 802 801 801 800 800 800 799 798 798 798
794 793 793 795 796 798 804 809 810 811 813 813 812 815 818 819 821 822 823 825 827 827 828 829 829 830 830 831 832 832 832 833 833 833 834 833 833 833 832 831 831 830 829 829 828 828 827 826 825 824 824 823 822 821 820 819 818 818 816 815 814 813 812 811 810 808 807 806 805 804 802 801 801 800 799 799 798 797 797 796 796 796 795 795 795 794
794 793 794 796 799 802 806 809 810 811 814 814 813 814 817 819 821 822 824 825 826 827 828 828 829 830 830 831 831 831 831 832 832 833 833 833 833 833 832 832 831 830 829 829 828 828 827 827 826 825 824 823 822 821 820 819 818 816 815 814 813 812 811 809 808 807 805 804 802 801 800 799 798 797 796 795 794 793 793 792 792 792 792 792 792 792
793 792 794 795 797 799 802 805 807 807 807 811 814 816 818 819 820 822 823 824 825 826 827 828 829 830 831 831 832 832 831 832 833 833 833 832 833 833 833 833 831 830 830 829 828 828 827 826 826 825 824 823 822 821 819 818 816 815 814 812 811 810 809 808 807 805 804 802 800 798 797 796 795 794 793 791 790 790 789 788 788 789 789 790 790 790
795 795 795 794 794 796 798 802 805 804 804 809 814 817 819 820 821 822 823 824 826 827 828 828 829 829 830 832 833 832 832 832 833 833 833 833 833 834 834 833 832 831 830 829 828 828 827 826 825 825 823 822 821 820 818 817 815 813 812 811 810 808 807 806 804 803 801 800 799 797 796 794 792 791 790 788 787 786 785 784 784 785 786 787 787 788